| time (UTC) | temp F | wind direction | speed MPH | gust MPH | rain 1hr in | rain 24hr in | rain mn in | humidity % | barometer mb |
| 20260905230001 | 76 | 36 | 0.0 | 8.0 | 0.00 | 0.02 | 0.02 | 71 | 1015.6 |
| 20260905224607 | 76 | 319 | 1.0 | 6.0 | 0.00 | 0.02 | 0.02 | 72 | 1015.4 |
| 20260905223059 | 76 | 309 | 1.0 | 6.0 | 0.00 | 0.02 | 0.02 | 73 | 1015.3 |
| 20260905221604 | 76 | 360 | 0.0 | 5.0 | 0.00 | 0.02 | 0.02 | 74 | 1015.3 |
| 20260905220105 | 75 | 91 | 1.0 | 4.0 | 0.00 | 0.02 | 0.02 | 76 | 1015.2 |
| 20260905214554 | 74 | 52 | 0.0 | 3.0 | 0.00 | 0.02 | 0.02 | 78 | 1015.5 |
| 20260905213054 | 75 | 337 | 0.0 | 5.0 | 0.00 | 0.02 | 0.02 | 78 | 1015.4 |
| 20260905211616 | 74 | 360 | 0.0 | 5.0 | 0.00 | 0.02 | 0.02 | 81 | 1015.5 |
| 20260905210054 | 74 | 90 | 0.0 | 4.0 | 0.00 | 0.02 | 0.02 | 84 | 1015.4 |
| 20260905204555 | 73 | 344 | 0.0 | 4.0 | 0.00 | 0.02 | 0.02 | 84 | 1015.4 |
| 20260905203110 | 73 | 43 | 0.0 | 3.0 | 0.00 | 0.02 | 0.02 | 84 | 1015.2 |
| 20260905201547 | 74 | 17 | 0.0 | 3.0 | 0.00 | 0.02 | 0.02 | 84 | 1015.2 |
| 20260905200054 | 74 | 42 | 0.0 | 6.0 | 0.00 | 0.02 | 0.02 | 84 | 1015.3 |
| 20260905194543 | 73 | 99 | 1.0 | 5.0 | 0.00 | 0.02 | 0.02 | 85 | 1015.3 |
| 20260905193043 | 73 | 51 | 0.0 | 0.0 | 0.00 | 0.02 | 0.02 | 85 | 1015.4 |
| 20260905191543 | 73 | 51 | 0.0 | 4.0 | 0.00 | 0.02 | 0.02 | 84 | 1015.3 |
| 20260905190039 | 72 | 60 | 0.0 | 2.0 | 0.00 | 0.02 | 0.02 | 87 | 1015.4 |
| 20260905184537 | 72 | 60 | 0.0 | 3.0 | 0.00 | 0.02 | 0.02 | 87 | 1015.5 |
| 20260905183035 | 72 | 59 | 0.0 | 3.0 | 0.00 | 0.02 | 0.02 | 89 | 1015.6 |
| 20260905181545 | 72 | 51 | 0.0 | 2.0 | 0.00 | 0.02 | 0.02 | 89 | 1015.5 |
| 20260905180033 | 72 | 94 | 0.0 | 4.0 | 0.00 | 0.02 | 0.02 | 90 | 1015.4 |
| 20260905174541 | 71 | 92 | 0.0 | 4.0 | 0.00 | 0.02 | 0.02 | 91 | 1015.5 |
| 20260905173034 | 71 | 82 | 0.0 | 6.0 | 0.00 | 0.02 | 0.02 | 90 | 1015.5 |
| 20260905171539 | 71 | 50 | 0.0 | 4.0 | 0.00 | 0.02 | 0.02 | 92 | 1015.5 |
| 20260905170027 | 71 | 94 | 1.0 | 4.0 | 0.00 | 0.02 | 0.02 | 93 | 1015.7 |
| 20260905164533 | 71 | 89 | 0.0 | 5.0 | 0.00 | 0.02 | 0.02 | 95 | 1015.8 |
| 20260905163024 | 70 | 84 | 1.0 | 7.0 | 0.00 | 0.02 | 0.02 | 95 | 1015.6 |
| 20260905161523 | 70 | 85 | 0.0 | 4.0 | 0.00 | 0.02 | 0.02 | 96 | 1015.6 |
| 20260905160031 | 70 | 82 | 0.0 | 3.0 | 0.00 | 0.02 | 0.02 | 97 | 1015.5 |
| 20260905154520 | 69 | 261 | 0.0 | 6.0 | 0.00 | 0.02 | 0.02 | 97 | 1015.4 |
| 20260905153022 | 69 | 71 | 0.0 | 5.0 | 0.00 | 0.02 | 0.02 | 97 | 1015.4 |
| 20260905151518 | 69 | 96 | 0.0 | 6.0 | 0.00 | 0.02 | 0.02 | 97 | 1015.4 |
| 20260905150017 | 69 | 65 | 0.0 | 6.0 | 0.00 | 0.02 | 0.02 | 98 | 1015.0 |
| 20260905144515 | 69 | 96 | 1.0 | 9.0 | 0.00 | 0.02 | 0.02 | 98 | 1014.7 |
| 20260905143015 | 69 | 69 | 0.0 | 5.0 | 0.00 | 0.02 | 0.02 | 98 | 1014.5 |
| 20260905141514 | 69 | 77 | 0.0 | 4.0 | 0.00 | 0.02 | 0.02 | 98 | 1014.6 |
| 20260905140014 | 69 | 32 | 0.0 | 5.0 | 0.00 | 0.02 | 0.02 | 98 | 1014.7 |
| 20260905134512 | 69 | 43 | 0.0 | 4.0 | 0.00 | 0.02 | 0.02 | 98 | 1014.8 |
| 20260905133011 | 69 | 76 | 0.0 | 4.0 | 0.01 | 0.02 | 0.02 | 98 | 1014.9 |
| 20260905131508 | 69 | 21 | 0.0 | 4.0 | 0.01 | 0.02 | 0.02 | 98 | 1014.6 |
| 20260905130006 | 68 | 360 | 0.0 | 2.0 | 0.01 | 0.02 | 0.02 | 98 | 1014.3 |
| 20260905124504 | 68 | 69 | 0.0 | 2.0 | 0.01 | 0.02 | 0.02 | 97 | 1014.3 |
| 20260905123002 | 68 | 69 | 0.0 | 3.0 | 0.00 | 0.01 | 0.01 | 97 | 1014.1 |
| 20260905121502 | 68 | 100 | 1.0 | 4.0 | 0.00 | 0.01 | 0.01 | 97 | 1013.8 |
| 20260905120116 | 68 | 99 | 0.0 | 7.0 | 0.00 | 0.08 | 0.01 | 97 | 1013.6 |
| 20260905114557 | 68 | 70 | 0.0 | 4.0 | 0.00 | 0.08 | 0.01 | 97 | 1013.5 |
| 20260905113055 | 69 | 85 | 0.0 | 3.0 | 0.01 | 0.08 | 0.01 | 97 | 1013.3 |
| 20260905111608 | 69 | 80 | 0.0 | 3.0 | 0.01 | 0.08 | 0.01 | 97 | 1013.2 |
| 20260905110057 | 69 | 343 | 2.0 | 6.0 | 0.01 | 0.44 | 0.01 | 97 | 1013.1 |
| 20260905104552 | 69 | 98 | 1.0 | 6.0 | 0.01 | 0.44 | 0.01 | 97 | 1013.0 |
| 20260905103053 | 69 | 73 | 1.0 | 5.0 | 0.00 | 0.43 | 0.00 | 97 | 1013.0 |
| 20260905101551 | 69 | 74 | 0.0 | 5.0 | 0.00 | 0.43 | 0.00 | 96 | 1013.1 |
| 20260905100053 | 68 | 94 | 0.0 | 4.0 | 0.00 | 0.60 | 0.00 | 96 | 1013.0 |
| 20260905094548 | 69 | 85 | 2.0 | 9.0 | 0.00 | 0.60 | 0.00 | 96 | 1012.9 |
| 20260905093046 | 69 | 75 | 0.0 | 6.0 | 0.00 | 0.60 | 0.00 | 95 | 1012.9 |
| 20260905091614 | 69 | 360 | 1.0 | 4.0 | 0.00 | 0.60 | 0.00 | 95 | 1012.9 |
| 20260905090044 | 69 | 349 | 0.0 | 7.0 | 0.00 | 0.68 | 0.00 | 95 | 1012.9 |
| 20260905084542 | 70 | 59 | 0.0 | 3.0 | 0.00 | 0.68 | 0.00 | 95 | 1012.9 |
| 20260905083042 | 70 | 56 | 0.0 | 4.0 | 0.00 | 0.68 | 0.00 | 95 | 1012.8 |
| 20260905081540 | 70 | 90 | 0.0 | 3.0 | 0.00 | 0.68 | 0.00 | 95 | 1012.7 |
| 20260905080048 | 70 | 73 | 0.0 | 2.0 | 0.00 | 0.72 | 0.00 | 95 | 1012.6 |
| 20260905074542 | 70 | 72 | 0.0 | 0.0 | 0.00 | 0.72 | 0.00 | 95 | 1012.6 |
| 20260905073038 | 70 | 72 | 0.0 | 0.0 | 0.00 | 0.72 | 0.00 | 95 | 1012.5 |
| 20260905071538 | 70 | 72 | 0.0 | 0.0 | 0.00 | 0.72 | 0.00 | 95 | 1012.4 |
| 20260905070040 | 70 | 72 | 0.0 | 0.0 | 0.00 | 0.75 | 0.00 | 95 | 1012.5 |
| 20260905064538 | 70 | 71 | 0.0 | 3.0 | 0.00 | 0.75 | 0.00 | 95 | 1012.6 |
| 20260905063035 | 70 | 71 | 0.0 | 0.0 | 0.00 | 0.75 | 0.00 | 95 | 1012.5 |
| 20260905061543 | 71 | 70 | 0.0 | 1.0 | 0.00 | 0.75 | 0.00 | 95 | 1012.7 |
| 20260905060033 | 71 | 69 | 0.0 | 0.0 | 0.00 | 0.75 | 0.00 | 95 | 1012.6 |
| 20260905054531 | 71 | 69 | 0.0 | 0.0 | 0.00 | 0.75 | 0.00 | 94 | 1012.8 |
| 20260905053031 | 71 | 69 | 0.0 | 0.0 | 0.00 | 0.75 | 0.00 | 94 | 1012.7 |
| 20260905051536 | 71 | 69 | 0.0 | 0.0 | 0.00 | 0.75 | 0.00 | 94 | 1012.8 |
| 20260905050031 | 71 | 69 | 0.0 | 1.0 | 0.00 | 0.76 | 0.75 | 94 | 1012.6 |
| 20260905044533 | 71 | 84 | 0.0 | 2.0 | 0.00 | 0.76 | 0.75 | 94 | 1012.5 |
| 20260905043028 | 71 | 84 | 0.0 | 3.0 | 0.00 | 0.76 | 0.75 | 94 | 1012.6 |
| 20260905041524 | 71 | 83 | 0.0 | 0.0 | 0.00 | 0.76 | 0.75 | 94 | 1012.7 |
| 20260905040026 | 71 | 83 | 0.0 | 4.0 | 0.00 | 0.77 | 0.75 | 94 | 1012.6 |
| 20260905034523 | 72 | 89 | 0.0 | 3.0 | 0.00 | 0.77 | 0.75 | 94 | 1012.4 |
| 20260905033030 | 72 | 94 | 0.0 | 2.0 | 0.00 | 0.77 | 0.75 | 94 | 1012.4 |
| 20260905031524 | 72 | 94 | 0.0 | 0.0 | 0.00 | 0.77 | 0.75 | 93 | 1012.7 |
| 20260905030032 | 72 | 94 | 0.0 | 1.0 | 0.00 | 0.81 | 0.75 | 93 | 1012.7 |
| 20260905024520 | 72 | 94 | 0.0 | 0.0 | 0.00 | 0.81 | 0.75 | 93 | 1012.2 |
| 20260905023018 | 72 | 107 | 0.0 | 0.0 | 0.00 | 0.81 | 0.75 | 93 | 1012.5 |
| 20260905021523 | 73 | 107 | 0.0 | 2.0 | 0.00 | 0.81 | 0.75 | 92 | 1012.2 |
| 20260905020018 | 73 | 107 | 0.0 | 0.0 | 0.00 | 0.81 | 0.75 | 92 | 1012.3 |
| 20260905014522 | 73 | 107 | 0.0 | 2.0 | 0.00 | 0.81 | 0.75 | 92 | 1012.0 |
| 20260905013017 | 73 | 112 | 0.0 | 2.0 | 0.00 | 0.81 | 0.75 | 91 | 1012.1 |
| 20260905011517 | 73 | 114 | 0.0 | 0.0 | 0.00 | 0.81 | 0.75 | 91 | 1011.9 |
| 20260905010019 | 73 | 116 | 0.0 | 2.0 | 0.00 | 0.81 | 0.75 | 91 | 1011.7 |
| 20260905004521 | 73 | 117 | 0.0 | 3.0 | 0.00 | 0.81 | 0.75 | 91 | 1011.7 |
| 20260905003028 | 73 | 95 | 0.0 | 3.0 | 0.00 | 0.81 | 0.75 | 90 | 1011.8 |
| 20260905001540 | 73 | 93 | 0.0 | 4.0 | 0.00 | 0.81 | 0.75 | 90 | 1011.7 |
| 20260905000014 | 73 | 90 | 0.0 | 3.0 | 0.00 | 0.81 | 0.75 | 89 | 1011.6 |
| 20260904234517 | 74 | 93 | 0.0 | 4.0 | 0.00 | 0.81 | 0.75 | 89 | 1011.7 |
| 20260904233035 | 74 | 88 | 2.0 | 6.0 | 0.00 | 0.81 | 0.75 | 88 | 1011.4 |
| 20260904231512 | 74 | 102 | 1.0 | 6.0 | 0.00 | 0.81 | 0.75 | 87 | 1011.4 |